Regional Weather Roundup
Issued by NWS Little Rock, AR

Home | Current Version | Previous Version | Text Only | Print | Product List | Glossary Off
Versions: 1 2 3 4 5 6 7 8 9 10 11 12 13 14 15 16 17 18 19 20 21 22 23 24 25 26 27 28 29 30 31 32 33 34 35 36 37 38 39 40 41 42 43 44 45 46 47 48 49 50

000
ASUS44 KLZK 310205
RWRLZK

WEATHER ROUNDUP FOR ARKANSAS
NATIONAL WEATHER SERVICE LITTLE ROCK AR
900 PM CDT SUN AUG 30 2015

NOTE: "FAIR" INDICATES FEW OR NO CLOUDS BELOW 12,000 FEET WITH NO
SIGNIFICANT WEATHER AND/OR OBSTRUCTIONS TO VISIBILITY.

ARZ001-003-010-029-310300-
NORTHWEST ARKANSAS

CITY           SKY/WX    TMP DP  RH WIND       PRES   REMARKS
FAYETTEVILLE   CLEAR     73  72  96 CALM      30.00R
FORT SMITH     MOCLDY    78  66  66 CALM      29.96R
BENTONVILLE    CLEAR     75  68  78 SE5       30.00S
ROGERS         CLEAR     75  72  90 E6        30.01R
SILOAM SPGS    PTCLDY    79  66  65 E6        29.98R
HIGHFILL       CLEAR     78  73  84 E3        29.99R
SPRINGDALE     CLEAR     77  70  78 E3        30.02R
$$

ARZ004-005-016-310300-
NORTH CENTRAL ARKANSAS

CITY           SKY/WX    TMP DP  RH WIND       PRES   REMARKS
BATESVILLE     CLEAR     79  70  73 E3        30.00R
FLIPPIN        PTCLDY    79  66  65 CALM      29.99R
MTN HOME       PTCLDY    77  68  73 SE3       30.01R
$$

ARZ040-041-310300-
WEST CENTRAL ARKANSAS

CITY           SKY/WX    TMP DP  RH WIND       PRES   REMARKS
MENA           MOCLDY    79  68  69 CALM      29.99F
MOUNT IDA      PTCLDY    78  68  71 CALM      29.97R
$$

ARZ009-017-025-026-028-310300-
NORTHEAST ARKANSAS

CITY           SKY/WX    TMP DP  RH WIND       PRES   REMARKS
JONESBORO      CLEAR     77  71  82 SE7       30.01R
NEWPORT        CLEAR     76  73  90 E7        30.01R
WALNUT RIDGE   PTCLDY    79  68  69 SE6       30.00S
BLYTHEVILLE    PTCLDY    75  72  90 S6        30.02S
$$

ARZ022-023-033-042-044-310300-
CENTRAL ARKANSAS

CITY           SKY/WX    TMP DP  RH WIND       PRES   REMARKS
LITTLE ROCK    PTCLDY    83  67  58 SE9       29.99R HX  85
N LITTLE ROCK  PTCLDY    82  70  66 SE7       29.99R HX  86
JACKSONVILLE   CLEAR     81  68  64 E3        29.99R
SEARCY         CLEAR     76  69  79 CALM      30.01R
HOT SPRINGS    PTCLDY    78  67  68 E3        29.99R
RUSSELLVILLE   PTCLDY    79  71  76 CALM      29.97R
$$

ARZ036-310300-
EAST ARKANSAS

CITY           SKY/WX    TMP DP  RH WIND       PRES   REMARKS
WEST MEMPHIS   PTCLDY    77  69  76 SE7       30.01R
$$

ARZ050-053-066-070-073-310300-
SOUTHWEST ARKANSAS

CITY           SKY/WX    TMP DP  RH WIND       PRES   REMARKS
ARKADELPHIA    FAIR      75  71  87 CALM      29.98R
CAMDEN         CLEAR     77  68  73 CALM      29.97R
TEXARKANA      CLEAR     80  67  64 SE5       29.96R
EL DORADO      PTCLDY    81  68  64 CALM      29.98R
DE QUEEN       MOCLDY    83  68  60 S6        29.92F HX  86
$$

ARZ056-057-069-310300-
SOUTHEAST ARKANSAS

CITY           SKY/WX    TMP DP  RH WIND       PRES   REMARKS
PINE BLUFF     CLEAR     77  69  76 E7        29.99R
STUTTGART      MOCLDY    81  66  61 E3        30.00R
MONTICELLO     PTCLDY    78  70  76 NE3       29.98R

$$





USA.gov is the U.S. government's official web portal to all federal, state and local government web resources and services.